Kansas Department of Transportation
RWIS(Road and Runway Information System) Map and Weather Data





Station
Surface
Air
Wind
Site IDSensor TypeLocationTemperature (°F)Temperature (°F)Humidity (%)Speed (mi/h)Gusts (mi/h)DirectionTime
123002AtmosphericBonner Springs 904626NWJul 16 2018 3:05PM
123002ApproachBonner Springs126     Jul 16 2018 3:05PM
123002DeckBonner Springs124     Jul 16 2018 3:05PM
123014AtmosphericBull Creek 933927WNWJul 16 2018 3:05PM
123014DeckBull Creek115     Jul 16 2018 3:05PM
123014DepartureBull Creek115     Jul 16 2018 3:05PM
123015AtmosphericLeavenworth 885359NEJul 16 2018 3:05PM
123015DeckLeavenworthUnavailable     Jul 16 2018 3:05PM
123015DepartureLeavenworth120     Jul 16 2018 3:05PM
123020AtmosphericMayetta 9043710NJul 16 2018 3:05PM
123020RoadwayMayetta136     Jul 16 2018 3:05PM
123020DeckMayetta144     Jul 16 2018 3:05PM
505000AtmosphericKTA 1 866014EJul 16 2018 2:50PM
505000ApproachKTA 1100     Jul 16 2018 2:50PM
505000DeckKTA 1109     Jul 16 2018 2:50PM
505001AtmosphericKTA 2 905114EJul 16 2018 2:50PM
505001ApproachKTA 2109     Jul 16 2018 2:50PM
505001DeckKTA 2113     Jul 16 2018 2:50PM
505002AtmosphericKTA 3 886714EJul 16 2018 2:50PM
505002ApproachKTA 3115     Jul 16 2018 2:50PM
505002DeckKTA 3113     Jul 16 2018 2:50PM
505003AtmosphericKTA 4 845726NJul 16 2018 2:50PM
505003ApproachKTA 4106     Jul 16 2018 2:50PM
505003DeckKTA 4109     Jul 16 2018 2:50PM
505004AtmosphericKTA 5 889923SWJul 16 2018 2:50PM
505004RoadwayKTA 5113     Jul 16 2018 2:50PM
505004RoadwayKTA 5113     Jul 16 2018 2:50PM
505005AtmosphericKTA 6 953300NJul 16 2018 2:50PM
505005Approach KTA 6Unavailable     Jul 16 2018 2:50PM
505005DeckKTA 6124     Jul 16 2018 2:50PM
505006AtmosphericKTA 7 905557EJul 16 2018 2:50PM
505006ApproachKTA 7Unavailable     Jul 16 2018 2:50PM
505006DeckKTA 7Unavailable     Jul 16 2018 2:50PM
505007AtmosphericKTA 8 935046NEJul 16 2018 2:50PM
505007ApproachKTA 8124     Jul 16 2018 2:50PM
505007DeckKTA 8124     Jul 16 2018 2:50PM
505008AtmosphericKTA 9      Jul 15 2018 11:51PM
505008ApproachKTA 9      Jul 15 2018 11:51PM
505008DeckKTA 9      Jul 15 2018 11:51PM
505009AtmosphericKTA 10 992324NJul 16 2018 2:52PM
505009ApproachKTA 10122     Jul 16 2018 2:52PM
505009DeckKTA 10120     Jul 16 2018 2:52PM
505010AtmosphericWebb 903547NEJul 16 2018 3:05PM
505010DeckWebb120     Jul 16 2018 3:05PM
505010NullWebb126     Jul 16 2018 3:05PM
505014AtmosphericI-135 885026EJul 16 2018 3:05PM
505014ApproachI-135117     Jul 16 2018 3:05PM
505014DeckI-135Unavailable     Jul 16 2018 3:05PM
540000AtmosphericBlue Rapids 905026SJul 16 2018 3:05PM
540000DeckBlue Rapids133     Jul 16 2018 3:05PM
540000DepartureBlue Rapids142     Jul 16 2018 3:05PM
540001AtmosphericSabetha 905046ENEJul 16 2018 3:05PM
540001ApproachSabethaUnavailable     Jul 16 2018 3:05PM
540001DeckSabetha135     Jul 16 2018 3:05PM
540002AtmosphericWestgate 953726NJul 16 2018 3:05PM
540002DeckWestgate122     Jul 16 2018 3:05PM
540002DepartureWestgate97     Jul 16 2018 3:05PM
540003AtmosphericEmporia 885424SEJul 16 2018 3:05PM
540003ApproachEmporia115     Jul 16 2018 3:05PM
540003DeckEmporia109     Jul 16 2018 3:05PM
540005AtmosphericLawrence 91501 NNEJul 16 2018 3:05PM
540005ApproachLawrenceUnavailable     Jul 16 2018 3:05PM
540005DeckLawrenceUnavailable     Jul 16 2018 3:05PM
540006AtmosphericTroy 916914WSWJul 16 2018 3:05PM
540006DeckTroy131     Jul 16 2018 3:05PM
540006DepartureTroy144     Jul 16 2018 3:05PM
541000AtmosphericElkhart 9138712ESEJul 16 2018 3:05PM
541000ApproachElkhart147     Jul 16 2018 3:05PM
541000DeckElkhart135     Jul 16 2018 3:05PM
541000DeckElkhart135     Jul 16 2018 3:05PM
541001AtmosphericSyracuse 8845813ESEJul 16 2018 3:05PM
541001Out of Service for WinterSyracuse129     Jul 16 2018 3:05PM
541001DeckSyracuse122     Jul 16 2018 3:05PM
541002AtmosphericLiberal 914348ESEJul 16 2018 3:05PM
541002ApproachLiberalUnavailable     Jul 16 2018 3:05PM
541002DeckLiberalUnavailable     Jul 16 2018 3:05PM
541003AtmosphericFord 9143710EJul 16 2018 3:05PM
541003DeckFord133     Jul 16 2018 3:05PM
541003DepartureFord133     Jul 16 2018 3:05PM
541004AtmosphericScott 901000NJul 16 2018 3:05PM
541004DepartureScottUnavailable     Jul 16 2018 3:05PM
541005AtmosphericNess 885569EJul 16 2018 3:05PM
541005DeckNess122     Jul 16 2018 3:05PM
541005DepartureNess131     Jul 16 2018 3:05PM
541007AtmosphericGarden City 8855511ESEJul 16 2018 3:05PM
541007ApproachGarden City109     Jul 16 2018 3:05PM
541007DeckGarden City118     Jul 16 2018 3:05PM
543000AtmosphericJunction City 934046NNEJul 16 2018 2:10PM
543000ApproachJunction City124     Jul 16 2018 2:10PM
543000DeckJunction City127     Jul 16 2018 2:10PM
543001AtmosphericEllsworth 883936SWJul 16 2018 3:05PM
543001RoadwayEllsworthUnavailable     Jul 16 2018 3:05PM
543002AtmosphericMcPherson 904925SEJul 16 2018 3:05PM
543002ApproachMcPherson127     Jul 16 2018 3:05PM
543002DeckMcPherson131     Jul 16 2018 3:05PM
543003AtmosphericSalina 883947EJul 16 2018 3:05PM
543003DepartureSalina124     Jul 16 2018 3:05PM
543003RoadwaySalina126     Jul 16 2018 3:05PM
543004AtmosphericConcordia 86614 SEJul 16 2018 3:05PM
543004ApproachConcordiaUnavailable     Jul 16 2018 3:05PM
543004DeckConcordiaUnavailable     Jul 16 2018 3:05PM
543005AtmosphericPeabody 885004NEJul 16 2018 3:05PM
543005ApproachPeabody124     Jul 16 2018 3:05PM
543005DeckPeabodyUnavailable     Jul 16 2018 3:05PM
560000AtmosphericEdson 8831611SSEJul 16 2018 3:05PM
560000RoadwayEdson133     Jul 16 2018 3:05PM
560000RoadwayEdson124     Jul 16 2018 3:05PM
560001AtmosphericOakley 849446NJul 16 2018 3:05PM
560001ApproachOakley88     Jul 16 2018 3:05PM
560001DeckOakley84     Jul 16 2018 3:05PM
560002AtmosphericAtwood 8651511ESEJul 16 2018 3:05PM
560002ApproachAtwood117     Jul 16 2018 3:05PM
560002DeckAtwood126     Jul 16 2018 3:05PM
560003AtmosphericJennings 904903SSEJul 16 2018 3:05PM
560003ApproachJenningsUnavailable     Jul 16 2018 3:05PM
560003DeckJennings126     Jul 16 2018 3:05PM
560003DeckJennings126     Jul 16 2018 3:05PM
560004AtmosphericWakeeney 865737SSEJul 16 2018 3:05PM
560004ApproachWakeeney122     Jul 16 2018 3:05PM
560004DeckWakeeney124     Jul 16 2018 3:05PM
560005AtmosphericWalker 885646ESEJul 16 2018 3:05PM
560005ApproachWalker126     Jul 16 2018 3:05PM
560005DeckWalker122     Jul 16 2018 3:05PM
560006AtmosphericBow Creek(Stockton) 884216SSWJul 16 2018 3:05PM
560006ApproachBow Creek(Stockton)120     Jul 16 2018 3:05PM
560006DeckBow Creek(Stockton)111     Jul 16 2018 3:05PM
560007AtmosphericLebanon 775446SSEJul 16 2018 3:05PM
560007ApproachLebanon129     Jul 16 2018 3:05PM
560007DeckLebanon120     Jul 16 2018 3:05PM
560008AtmosphericWallace 862068ESEJul 16 2018 3:05PM
560008ApproachWallace111     Jul 16 2018 3:05PM
560008DeckWallace102     Jul 16 2018 3:05PM
572000AtmosphericGreat Bend 915338SJul 16 2018 3:05PM
572000ApproachGreat BendUnavailable     Jul 16 2018 3:05PM
572000DeckGreat Bend135     Jul 16 2018 3:05PM
572001AtmosphericPratt 911613EJul 16 2018 3:05PM
572001ApproachPratt138     Jul 16 2018 3:05PM
572001DeckPratt131     Jul 16 2018 3:05PM
572002AtmosphericAnthony 846468SEJul 16 2018 3:05PM
572002ApproachAnthony118     Jul 16 2018 3:05PM
572002DeckAnthonyUnavailable     Jul 16 2018 3:05PM
573000AtmosphericEureka 845924SEJul 16 2018 3:05PM
573000DeckEurekaUnavailable     Jul 16 2018 3:05PM
573000DepartureEureka102     Jul 16 2018 3:05PM
573001AtmosphericGarnett 885344NJul 16 2018 3:05PM
573001ApproachGarnett118     Jul 16 2018 3:05PM
573001DeckGarnett115     Jul 16 2018 3:05PM
573002AtmosphericCaney 796624WNWJul 16 2018 3:05PM
573002RoadwayCaney88     Jul 16 2018 3:05PM
573003AtmosphericChetopa 886448WSWJul 16 2018 3:05PM
573003DeckChetopa120     Jul 16 2018 3:05PM
573003DeckChetopa120     Jul 16 2018 3:05PM
573003DepartureChetopa124     Jul 16 2018 3:05PM
573004AtmosphericChanute 935124WNWJul 16 2018 3:05PM
573004ApproachChanute127     Jul 16 2018 3:05PM
573004DeckChanute126     Jul 16 2018 3:05PM